Volver al catálogo

PEGASUS DEB

ActivoPO
NORAD 39319·DEBRIS·🇺🇸 United States

Lanzado May 19, 1994 desde Vandenberg Space Force Base

Loading…

Próximos Pases (próximas 24 horas)

TLE

EnvejeciendoSource: Space-Track

Época: Sep 10, 2026, 10:22 UTC

1 39319U 94029AFE 26253.43222519  .00000741  00000-0  98839-4 0  9998
2 39319  81.9441 316.3031 0179615  14.9431 345.6981 14.67639541290836

Sigue PEGASUS DEB en tiempo real con AllMySat

Download on the App Store